Time,TemperatureF,DewpointF,PressureIn,WindDirection,WindDirectionDegrees,WindSpeedMPH,WindSpeedGustMPH,Humidity,HourlyPrecipIn,Conditions,Clouds,dailyrainin,SolarRadiationWatts/m^2,SoftwareType,DateUTC
2013-03-20 00:02:00,43.0,14.0,-100.00,NNE,31,2.0,5.0,31,0.00,,,0.00,0.000000,,2013-03-20 06:02:00,
2013-03-20 00:12:00,43.0,14.0,-100.00,NNE,31,2.0,5.0,31,0.00,,,0.00,0.000000,,2013-03-20 06:12:00,
2013-03-20 00:22:00,43.0,14.0,-100.00,NNE,31,2.0,5.0,31,0.00,,,0.00,0.000000,,2013-03-20 06:22:00,
2013-03-20 00:32:00,43.0,14.0,-100.00,NNE,31,2.0,5.0,31,0.00,,,0.00,0.000000,,2013-03-20 06:32:00,
2013-03-20 01:02:00,46.0,16.0,-100.00,ESE,105,5.0,10.0,30,0.00,,,-99.99,0.000000,,2013-03-20 07:02:00,
2013-03-20 01:12:00,46.0,16.0,-100.00,ESE,105,5.0,10.0,30,0.00,,,-99.99,0.000000,,2013-03-20 07:12:00,
2013-03-20 01:22:00,46.0,16.0,-100.00,ESE,105,5.0,10.0,30,0.00,,,-99.99,0.000000,,2013-03-20 07:22:00,
2013-03-20 01:32:00,46.0,16.0,-100.00,ESE,105,5.0,10.0,30,0.00,,,-99.99,0.000000,,2013-03-20 07:32:00,
2013-03-20 01:41:00,46.0,16.0,-100.00,ESE,105,5.0,10.0,30,0.00,,,-99.99,0.000000,,2013-03-20 07:41:00,
2013-03-20 01:42:00,48.0,20.0,-100.00,SE,141,3.0,15.0,32,0.00,,,0.00,0.000000,,2013-03-20 07:42:00,
2013-03-20 02:02:00,48.0,20.0,-100.00,SE,141,3.0,15.0,32,0.00,,,0.00,0.000000,,2013-03-20 08:02:00,
2013-03-20 02:12:00,48.0,20.0,-100.00,SE,141,3.0,15.0,32,0.00,,,0.00,0.000000,,2013-03-20 08:12:00,
2013-03-20 02:22:00,48.0,20.0,-100.00,SE,141,3.0,15.0,32,0.00,,,0.00,0.000000,,2013-03-20 08:22:00,
2013-03-20 02:32:00,48.0,20.0,-100.00,SE,141,3.0,15.0,32,0.00,,,0.00,0.000000,,2013-03-20 08:32:00,
2013-03-20 02:42:00,44.0,19.0,-100.00,SSE,154,5.0,13.0,36,0.00,,,0.00,0.000000,,2013-03-20 08:42:00,
2013-03-20 03:02:00,44.0,19.0,-100.00,SSE,154,5.0,13.0,36,0.00,,,0.00,0.000000,,2013-03-20 09:02:00,
2013-03-20 03:12:00,44.0,19.0,-100.00,SSE,154,5.0,13.0,36,0.00,,,0.00,0.000000,,2013-03-20 09:12:00,
2013-03-20 03:22:00,44.0,19.0,-100.00,SSE,154,5.0,13.0,36,0.00,,,0.00,0.000000,,2013-03-20 09:22:00,
2013-03-20 03:32:00,44.0,19.0,-100.00,SSE,154,5.0,13.0,36,0.00,,,0.00,0.000000,,2013-03-20 09:32:00,
2013-03-20 04:03:00,43.0,24.0,-100.00,SW,229,5.0,24.0,46,0.00,,,-99.99,0.000000,,2013-03-20 10:03:00,
2013-03-20 04:12:00,43.0,24.0,-100.00,SW,229,5.0,24.0,46,0.00,,,-99.99,0.000000,,2013-03-20 10:12:00,
2013-03-20 04:22:00,43.0,24.0,-100.00,SW,229,5.0,24.0,46,0.00,,,-99.99,0.000000,,2013-03-20 10:22:00,
2013-03-20 04:32:00,43.0,24.0,-100.00,SW,229,5.0,24.0,46,0.00,,,-99.99,0.000000,,2013-03-20 10:32:00,
2013-03-20 04:42:00,39.0,35.0,-100.00,SE,142,6.0,17.0,84,0.01,,,0.01,0.000000,,2013-03-20 10:42:00,
2013-03-20 05:02:00,39.0,35.0,-100.00,SE,142,6.0,17.0,84,0.01,,,0.01,0.000000,,2013-03-20 11:02:00,
2013-03-20 05:22:00,39.0,35.0,-100.00,SE,142,6.0,17.0,84,0.01,,,0.01,0.000000,,2013-03-20 11:22:00,
2013-03-20 05:32:00,39.0,35.0,-100.00,SE,142,6.0,17.0,84,0.01,,,0.01,0.000000,,2013-03-20 11:32:00,
2013-03-20 05:42:00,37.0,35.0,-100.00,NW,316,1.0,7.0,93,0.09,,,0.10,0.000000,,2013-03-20 11:42:00,
2013-03-20 06:02:00,37.0,35.0,-100.00,NW,316,1.0,7.0,93,0.09,,,0.10,0.000000,,2013-03-20 12:02:00,
2013-03-20 06:12:00,37.0,35.0,-100.00,NW,316,1.0,7.0,93,0.09,,,0.10,0.000000,,2013-03-20 12:12:00,
2013-03-20 06:22:00,37.0,35.0,-100.00,NW,316,1.0,7.0,93,0.09,,,0.10,0.000000,,2013-03-20 12:22:00,
2013-03-20 06:32:00,37.0,35.0,-100.00,NW,316,1.0,7.0,93,0.09,,,0.10,0.000000,,2013-03-20 12:32:00,
2013-03-20 06:42:00,35.0,33.0,-100.00,North,356,3.0,6.0,94,0.04,,,0.14,0.000000,,2013-03-20 12:42:00,
2013-03-20 07:03:00,35.0,33.0,-100.00,North,356,3.0,6.0,94,0.04,,,0.14,0.000000,,2013-03-20 13:03:00,
2013-03-20 07:12:00,35.0,33.0,-100.00,North,356,3.0,6.0,94,0.04,,,0.14,0.000000,,2013-03-20 13:12:00,
2013-03-20 07:22:00,35.0,33.0,-100.00,North,356,3.0,6.0,94,0.04,,,0.14,0.000000,,2013-03-20 13:22:00,
2013-03-20 07:32:00,35.0,33.0,-100.00,North,356,3.0,6.0,94,0.04,,,0.14,0.000000,,2013-03-20 13:32:00,
2013-03-20 07:42:00,36.0,34.0,-100.00,NNE,17,2.0,5.0,94,0.03,,,0.17,0.000000,,2013-03-20 13:42:00,
2013-03-20 08:02:00,36.0,34.0,-100.00,NNE,17,2.0,5.0,94,0.03,,,0.17,0.000000,,2013-03-20 14:02:00,
2013-03-20 08:12:00,36.0,34.0,-100.00,NNE,17,2.0,5.0,94,0.03,,,0.17,0.000000,,2013-03-20 14:12:00,
2013-03-20 08:22:00,36.0,34.0,-100.00,NNE,17,2.0,5.0,94,0.03,,,0.17,0.000000,,2013-03-20 14:22:00,
2013-03-20 08:32:00,36.0,34.0,-100.00,NNE,17,2.0,5.0,94,0.03,,,0.17,0.000000,,2013-03-20 14:32:00,
2013-03-20 08:42:00,36.0,35.0,-100.00,East,96,2.0,6.0,97,0.01,,,0.18,3.000000,,2013-03-20 14:42:00,
2013-03-20 09:02:00,36.0,35.0,-100.00,East,96,2.0,6.0,97,0.01,,,0.18,3.000000,,2013-03-20 15:02:00,
2013-03-20 09:12:00,36.0,35.0,-100.00,East,96,2.0,6.0,97,0.01,,,0.18,3.000000,,2013-03-20 15:12:00,
2013-03-20 09:22:00,36.0,35.0,-100.00,East,96,2.0,6.0,97,0.01,,,0.18,3.000000,,2013-03-20 15:22:00,
2013-03-20 09:33:00,36.0,35.0,-100.00,East,96,2.0,6.0,97,0.01,,,0.18,3.000000,,2013-03-20 15:33:00,
2013-03-20 09:42:00,38.0,37.0,-100.00,East,101,4.0,7.0,97,0.05,,,0.23,22.000000,,2013-03-20 15:42:00,
2013-03-20 10:03:00,38.0,37.0,-100.00,East,101,4.0,7.0,97,0.05,,,0.23,22.000000,,2013-03-20 16:03:00,
2013-03-20 10:12:00,38.0,37.0,-100.00,East,101,4.0,7.0,97,0.05,,,0.23,22.000000,,2013-03-20 16:12:00,
2013-03-20 10:23:00,38.0,37.0,-100.00,East,101,4.0,7.0,97,0.05,,,0.23,22.000000,,2013-03-20 16:23:00,
2013-03-20 10:32:00,38.0,37.0,-100.00,East,101,4.0,7.0,97,0.05,,,0.23,22.000000,,2013-03-20 16:32:00,
2013-03-20 10:42:00,39.0,38.0,-100.00,SSE,149,4.0,10.0,98,0.05,,,0.28,61.000000,,2013-03-20 16:42:00,
2013-03-20 11:03:00,39.0,38.0,-100.00,SSE,149,4.0,10.0,98,0.05,,,0.28,61.000000,,2013-03-20 17:03:00,
2013-03-20 11:12:00,39.0,38.0,-100.00,SSE,149,4.0,10.0,98,0.05,,,0.28,61.000000,,2013-03-20 17:12:00,
2013-03-20 11:22:00,39.0,38.0,-100.00,SSE,149,4.0,10.0,98,0.05,,,0.28,61.000000,,2013-03-20 17:22:00,
2013-03-20 11:32:00,39.0,38.0,-100.00,SSE,149,4.0,10.0,98,0.05,,,0.28,61.000000,,2013-03-20 17:32:00,
2013-03-20 11:42:00,40.0,39.0,-100.00,South,178,8.0,14.0,98,0.03,,,0.31,78.000000,,2013-03-20 17:42:00,
2013-03-20 12:02:00,40.0,39.0,-100.00,South,178,8.0,14.0,98,0.03,,,0.31,78.000000,,2013-03-20 18:02:00,
2013-03-20 12:12:00,40.0,39.0,-100.00,South,178,8.0,14.0,98,0.03,,,0.31,78.000000,,2013-03-20 18:12:00,
2013-03-20 12:22:00,40.0,39.0,-100.00,South,178,8.0,14.0,98,0.03,,,0.31,78.000000,,2013-03-20 18:22:00,
2013-03-20 12:32:00,40.0,39.0,-100.00,South,178,8.0,14.0,98,0.03,,,0.31,78.000000,,2013-03-20 18:32:00,
2013-03-20 12:42:00,42.0,41.0,-100.00,SSW,194,11.0,17.0,96,0.02,,,0.33,131.000000,,2013-03-20 18:42:00,
2013-03-20 13:02:00,42.0,41.0,-100.00,SSW,194,11.0,17.0,96,0.02,,,0.33,131.000000,,2013-03-20 19:02:00,
2013-03-20 13:12:00,42.0,41.0,-100.00,SSW,194,11.0,17.0,96,0.02,,,0.33,131.000000,,2013-03-20 19:12:00,
2013-03-20 13:22:00,42.0,41.0,-100.00,SSW,194,11.0,17.0,96,0.02,,,0.33,131.000000,,2013-03-20 19:22:00,
2013-03-20 13:32:00,42.0,41.0,-100.00,SSW,194,11.0,17.0,96,0.02,,,0.33,131.000000,,2013-03-20 19:32:00,
2013-03-20 13:42:00,44.0,43.0,-100.00,SSW,213,7.0,15.0,97,0.00,,,0.33,197.000000,,2013-03-20 19:42:00,
2013-03-20 14:02:00,44.0,43.0,-100.00,SSW,213,7.0,15.0,97,0.00,,,0.33,197.000000,,2013-03-20 20:02:00,
2013-03-20 14:12:00,44.0,43.0,-100.00,SSW,213,7.0,15.0,97,0.00,,,0.33,197.000000,,2013-03-20 20:12:00,
2013-03-20 14:22:00,44.0,43.0,-100.00,SSW,213,7.0,15.0,97,0.00,,,0.33,197.000000,,2013-03-20 20:22:00,
2013-03-20 14:32:00,44.0,43.0,-100.00,SSW,213,7.0,15.0,97,0.00,,,0.33,197.000000,,2013-03-20 20:32:00,
2013-03-20 14:42:00,44.0,43.0,-100.00,South,178,14.0,29.0,96,0.04,,,0.37,85.000000,,2013-03-20 20:42:00,
2013-03-20 15:02:00,44.0,43.0,-100.00,South,178,14.0,29.0,96,0.04,,,0.37,85.000000,,2013-03-20 21:02:00,
2013-03-20 15:12:00,44.0,43.0,-100.00,South,178,14.0,29.0,96,0.04,,,0.37,85.000000,,2013-03-20 21:12:00,
2013-03-20 15:22:00,44.0,43.0,-100.00,South,178,14.0,29.0,96,0.04,,,0.37,85.000000,,2013-03-20 21:22:00,
2013-03-20 15:33:00,44.0,43.0,-100.00,South,178,14.0,29.0,96,0.04,,,0.37,85.000000,,2013-03-20 21:33:00,
2013-03-20 15:42:00,45.0,43.0,-100.00,WNW,286,4.0,15.0,92,0.02,,,0.39,149.000000,,2013-03-20 21:42:00,
2013-03-20 16:03:00,45.0,43.0,-100.00,WNW,286,4.0,15.0,92,0.02,,,0.39,149.000000,,2013-03-20 22:03:00,
2013-03-20 16:12:00,45.0,43.0,-100.00,WNW,286,4.0,15.0,92,0.02,,,0.39,149.000000,,2013-03-20 22:12:00,
2013-03-20 16:23:00,45.0,43.0,-100.00,WNW,286,4.0,15.0,92,0.02,,,0.39,149.000000,,2013-03-20 22:23:00,
2013-03-20 16:32:00,45.0,43.0,-100.00,WNW,286,4.0,15.0,92,0.02,,,0.39,149.000000,,2013-03-20 22:32:00,
2013-03-20 16:42:00,47.0,43.0,-100.00,WSW,243,7.0,20.0,87,0.02,,,0.41,131.000000,,2013-03-20 22:42:00,
2013-03-20 17:02:00,47.0,43.0,-100.00,WSW,243,7.0,20.0,87,0.02,,,0.41,131.000000,,2013-03-20 23:02:00,
2013-03-20 17:12:00,47.0,43.0,-100.00,WSW,243,7.0,20.0,87,0.02,,,0.41,131.000000,,2013-03-20 23:12:00,
2013-03-20 17:22:00,47.0,43.0,-100.00,WSW,243,7.0,20.0,87,0.02,,,0.41,131.000000,,2013-03-20 23:22:00,
2013-03-20 17:32:00,47.0,43.0,-100.00,WSW,243,7.0,20.0,87,0.02,,,0.41,131.000000,,2013-03-20 23:32:00,
2013-03-20 18:02:00,43.0,38.0,-100.00,WNW,297,19.0,44.0,82,0.07,,,0.48,43.000000,,2013-03-21 00:02:00,
2013-03-20 18:12:00,43.0,38.0,-100.00,WNW,297,19.0,44.0,82,0.07,,,0.48,43.000000,,2013-03-21 00:12:00,
2013-03-20 18:22:00,43.0,38.0,-100.00,WNW,297,19.0,44.0,82,0.07,,,0.48,43.000000,,2013-03-21 00:22:00,
2013-03-20 18:32:00,43.0,38.0,-100.00,WNW,297,19.0,44.0,82,0.07,,,0.48,43.000000,,2013-03-21 00:32:00,
2013-03-20 18:41:00,43.0,38.0,-100.00,WNW,297,19.0,44.0,82,0.07,,,0.48,43.000000,,2013-03-21 00:41:00,
2013-03-20 18:42:00,42.0,35.0,-100.00,NNW,344,7.0,38.0,77,0.01,,,0.49,50.000000,,2013-03-21 00:42:00,
2013-03-20 19:02:00,42.0,35.0,-100.00,NNW,344,7.0,38.0,77,0.01,,,0.49,50.000000,,2013-03-21 01:02:00,
2013-03-20 19:12:00,42.0,35.0,-100.00,NNW,344,7.0,38.0,77,0.01,,,0.49,50.000000,,2013-03-21 01:12:00,
2013-03-20 19:22:00,42.0,35.0,-100.00,NNW,344,7.0,38.0,77,0.01,,,0.49,50.000000,,2013-03-21 01:22:00,
2013-03-20 19:32:00,42.0,35.0,-100.00,NNW,344,7.0,38.0,77,0.01,,,0.49,50.000000,,2013-03-21 01:32:00,
2013-03-20 19:42:00,42.0,33.0,-100.00,SSW,210,6.0,16.0,70,0.00,,,0.49,27.000000,,2013-03-21 01:42:00,
2013-03-20 20:02:00,42.0,33.0,-100.00,SSW,210,6.0,16.0,70,0.00,,,0.49,27.000000,,2013-03-21 02:02:00,
2013-03-20 20:12:00,42.0,33.0,-100.00,SSW,210,6.0,16.0,70,0.00,,,0.49,27.000000,,2013-03-21 02:12:00,
2013-03-20 20:22:00,42.0,33.0,-100.00,SSW,210,6.0,16.0,70,0.00,,,0.49,27.000000,,2013-03-21 02:22:00,
2013-03-20 20:32:00,42.0,33.0,-100.00,SSW,210,6.0,16.0,70,0.00,,,0.49,27.000000,,2013-03-21 02:32:00,
2013-03-20 20:42:00,41.0,32.0,-100.00,NNW,345,5.0,13.0,71,0.00,,,0.49,5.000000,,2013-03-21 02:42:00,
2013-03-20 21:02:00,41.0,32.0,-100.00,NNW,345,5.0,13.0,71,0.00,,,0.49,5.000000,,2013-03-21 03:02:00,
2013-03-20 21:12:00,41.0,32.0,-100.00,NNW,345,5.0,13.0,71,0.00,,,0.49,5.000000,,2013-03-21 03:12:00,
2013-03-20 21:22:00,41.0,32.0,-100.00,NNW,345,5.0,13.0,71,0.00,,,0.49,5.000000,,2013-03-21 03:22:00,
2013-03-20 21:32:00,41.0,32.0,-100.00,NNW,345,5.0,13.0,71,0.00,,,0.49,5.000000,,2013-03-21 03:32:00,
2013-03-20 21:42:00,39.0,30.0,-100.00,NW,310,6.0,13.0,70,0.00,,,0.49,0.000000,,2013-03-21 03:42:00,
2013-03-20 22:03:00,39.0,30.0,-100.00,NW,310,6.0,13.0,70,0.00,,,0.49,0.000000,,2013-03-21 04:03:00,
2013-03-20 22:12:00,39.0,30.0,-100.00,NW,310,6.0,13.0,70,0.00,,,0.49,0.000000,,2013-03-21 04:12:00,
2013-03-20 22:22:00,39.0,30.0,-100.00,NW,310,6.0,13.0,70,0.00,,,0.49,0.000000,,2013-03-21 04:22:00,
2013-03-20 22:32:00,39.0,30.0,-100.00,NW,310,6.0,13.0,70,0.00,,,0.49,0.000000,,2013-03-21 04:32:00,
2013-03-20 22:42:00,38.0,30.0,-100.00,NNW,332,4.0,18.0,74,0.00,,,0.49,0.000000,,2013-03-21 04:42:00,
2013-03-20 23:02:00,38.0,30.0,-100.00,NNW,332,4.0,18.0,74,0.00,,,0.49,0.000000,,2013-03-21 05:02:00,
2013-03-20 23:12:00,38.0,30.0,-100.00,NNW,332,4.0,18.0,74,0.00,,,0.49,0.000000,,2013-03-21 05:12:00,
2013-03-20 23:22:00,38.0,30.0,-100.00,NNW,332,4.0,18.0,74,0.00,,,0.49,0.000000,,2013-03-21 05:22:00,
2013-03-20 23:32:00,38.0,30.0,-100.00,NNW,332,4.0,18.0,74,0.00,,,0.49,0.000000,,2013-03-21 05:32:00,
2013-03-20 23:42:00,35.0,30.0,-100.00,NNW,334,5.0,22.0,81,0.00,,,0.49,0.000000,,2013-03-21 05:42:00,